Year,Month,Day,Hour,Minute,Value (Times are PST for temperature in C)
2019,03,18,00,00,12.60
2019,03,18,00,01,12.60
2019,03,18,00,02,12.60
2019,03,18,00,03,12.60
2019,03,18,00,04,12.60
2019,03,18,00,05,12.60
2019,03,18,00,06,12.60
2019,03,18,00,07,12.60
2019,03,18,00,08,12.60
2019,03,18,00,09,12.60
2019,03,18,00,10,12.60
2019,03,18,00,11,12.60
2019,03,18,00,12,12.60
2019,03,18,00,13,12.60
2019,03,18,00,14,12.60
2019,03,18,00,15,12.60
2019,03,18,00,16,12.50
2019,03,18,00,17,12.50
2019,03,18,00,18,12.40
2019,03,18,00,19,12.40
2019,03,18,00,20,12.40
2019,03,18,00,21,12.30
2019,03,18,00,22,12.30
2019,03,18,00,23,12.30
2019,03,18,00,24,12.20
2019,03,18,00,25,12.20
2019,03,18,00,26,12.10
2019,03,18,00,27,12.10
2019,03,18,00,28,12.00
2019,03,18,00,29,11.90
2019,03,18,00,30,11.80
2019,03,18,00,31,11.80
2019,03,18,00,32,11.70
2019,03,18,00,33,11.70
2019,03,18,00,34,11.60
2019,03,18,00,35,11.60
2019,03,18,00,36,11.50
2019,03,18,00,37,11.50
2019,03,18,00,38,11.40
2019,03,18,00,39,11.40
2019,03,18,00,40,11.30
2019,03,18,00,41,11.30
2019,03,18,00,42,11.20
2019,03,18,00,43,11.20
2019,03,18,00,44,11.10
2019,03,18,00,45,11.10
2019,03,18,00,46,11.00
2019,03,18,00,47,10.90
2019,03,18,00,48,10.90
2019,03,18,00,49,10.90
2019,03,18,00,50,10.90
2019,03,18,00,51,10.90
2019,03,18,00,52,10.80
2019,03,18,00,53,10.90
2019,03,18,00,54,10.90
2019,03,18,00,55,10.90
2019,03,18,00,56,10.90
2019,03,18,00,57,10.90
2019,03,18,00,58,10.90
2019,03,18,00,59,10.90
2019,03,18,01,00,10.90
2019,03,18,01,01,10.80
2019,03,18,01,02,10.80
2019,03,18,01,03,10.80
2019,03,18,01,04,10.80
2019,03,18,01,05,10.70
2019,03,18,01,06,10.70
2019,03,18,01,07,10.60
2019,03,18,01,08,10.60
2019,03,18,01,09,10.60
2019,03,18,01,10,10.50
2019,03,18,01,11,10.50
2019,03,18,01,12,10.50
2019,03,18,01,13,10.40
2019,03,18,01,14,10.40
2019,03,18,01,15,10.40
2019,03,18,01,16,10.30
2019,03,18,01,17,10.30
2019,03,18,01,18,10.30
2019,03,18,01,19,10.30
2019,03,18,01,20,10.30
2019,03,18,01,21,10.30
2019,03,18,01,22,10.30
2019,03,18,01,23,10.30
2019,03,18,01,24,10.30
2019,03,18,01,25,10.40
2019,03,18,01,26,10.40
2019,03,18,01,27,10.40
2019,03,18,01,28,10.50
2019,03,18,01,29,10.50
2019,03,18,01,30,10.60
2019,03,18,01,31,10.60
2019,03,18,01,32,10.60
2019,03,18,01,33,10.70
2019,03,18,01,34,10.70
2019,03,18,01,35,10.70
2019,03,18,01,36,10.70
2019,03,18,01,37,10.70
2019,03,18,01,38,10.70
2019,03,18,01,39,10.70
2019,03,18,01,40,10.70
2019,03,18,01,41,10.70
2019,03,18,01,42,10.70
2019,03,18,01,43,10.70
2019,03,18,01,44,10.70
2019,03,18,01,45,10.70
2019,03,18,01,46,10.70
2019,03,18,01,47,10.60
2019,03,18,01,48,10.60
2019,03,18,01,49,10.60
2019,03,18,01,50,10.60
2019,03,18,01,51,10.60
2019,03,18,01,52,10.50
2019,03,18,01,53,10.50
2019,03,18,01,54,10.50
2019,03,18,01,55,10.40
2019,03,18,01,56,10.40
2019,03,18,01,57,10.30
2019,03,18,01,58,10.30
2019,03,18,01,59,10.30
2019,03,18,02,00,10.30
2019,03,18,02,01,10.20
2019,03,18,02,02,10.20
2019,03,18,02,03,10.20
2019,03,18,02,04,10.20
2019,03,18,02,05,10.20
2019,03,18,02,06,10.20
2019,03,18,02,07,10.10
2019,03,18,02,08,10.10
2019,03,18,02,09,10.10
2019,03,18,02,10,10.10
2019,03,18,02,11,10.10
2019,03,18,02,12,10.10
2019,03,18,02,13,10.10
2019,03,18,02,14,10.10
2019,03,18,02,15,10.20
2019,03,18,02,16,10.20
2019,03,18,02,17,10.20
2019,03,18,02,18,10.20
2019,03,18,02,19,10.20
2019,03,18,02,20,10.20
2019,03,18,02,21,10.20
2019,03,18,02,22,10.20
2019,03,18,02,23,10.20
2019,03,18,02,24,10.20
2019,03,18,02,25,10.10
2019,03,18,02,26,10.10
2019,03,18,02,27,10.10
2019,03,18,02,28,10.10
2019,03,18,02,29,10.10
2019,03,18,02,30,10.10
2019,03,18,02,31,10.10
2019,03,18,02,32,10.10
2019,03,18,02,33,10.10
2019,03,18,02,34,10.10
2019,03,18,02,35,10.10
2019,03,18,02,36,10.10
2019,03,18,02,37,10.10
2019,03,18,02,38,10.00
2019,03,18,02,39,10.00
2019,03,18,02,40,10.00
2019,03,18,02,41,10.00
2019,03,18,02,42,10.00
2019,03,18,02,43,10.00
2019,03,18,02,44,10.00
2019,03,18,02,45,10.00
2019,03,18,02,46,10.00
2019,03,18,02,47,10.00
2019,03,18,02,48,10.00
2019,03,18,02,49,10.00
2019,03,18,02,50,10.00
2019,03,18,02,51,10.00
2019,03,18,02,52,10.00
2019,03,18,02,53,10.00
2019,03,18,02,54,10.00
2019,03,18,02,55,10.00
2019,03,18,02,56,10.10
2019,03,18,02,57,10.10
2019,03,18,02,58,10.10
2019,03,18,02,59,10.10
2019,03,18,03,00,10.00
2019,03,18,03,01,10.00
2019,03,18,03,02,10.00
2019,03,18,03,03,10.00
2019,03,18,03,04,9.90
2019,03,18,03,05,9.90
2019,03,18,03,06,9.90
2019,03,18,03,07,9.90
2019,03,18,03,08,9.90
2019,03,18,03,09,10.00
2019,03,18,03,10,9.90
2019,03,18,03,11,9.90
2019,03,18,03,12,9.90
2019,03,18,03,13,9.90
2019,03,18,03,14,9.90
2019,03,18,03,15,9.90
2019,03,18,03,16,9.80
2019,03,18,03,17,9.80
2019,03,18,03,18,9.90
2019,03,18,03,19,9.90
2019,03,18,03,20,9.90
2019,03,18,03,21,9.80
2019,03,18,03,22,9.80
2019,03,18,03,23,9.80
2019,03,18,03,24,9.80
2019,03,18,03,25,9.80
2019,03,18,03,26,9.80
2019,03,18,03,27,9.90
2019,03,18,03,28,9.90
2019,03,18,03,29,9.90
2019,03,18,03,30,9.90
2019,03,18,03,31,9.90
2019,03,18,03,32,9.90
2019,03,18,03,33,9.90
2019,03,18,03,34,9.90
2019,03,18,03,35,9.80
2019,03,18,03,36,9.80
2019,03,18,03,37,9.80
2019,03,18,03,38,9.80
2019,03,18,03,39,9.80
2019,03,18,03,40,9.80
2019,03,18,03,41,9.80
2019,03,18,03,42,9.80
2019,03,18,03,43,9.80
2019,03,18,03,44,9.80
2019,03,18,03,45,9.80
2019,03,18,03,46,9.80
2019,03,18,03,47,9.70
2019,03,18,03,48,9.70
2019,03,18,03,49,9.70
2019,03,18,03,50,9.70
2019,03,18,03,51,9.70
2019,03,18,03,52,9.60
2019,03,18,03,53,9.60
2019,03,18,03,54,9.60
2019,03,18,03,55,9.60
2019,03,18,03,56,9.60
2019,03,18,03,57,9.50
2019,03,18,03,58,9.50
2019,03,18,03,59,9.40
2019,03,18,04,00,9.40
2019,03,18,04,01,9.40
2019,03,18,04,02,9.30
2019,03,18,04,03,9.30
2019,03,18,04,04,9.30
2019,03,18,04,05,9.20
2019,03,18,04,06,9.20
2019,03,18,04,07,9.20
2019,03,18,04,08,9.20
2019,03,18,04,09,9.30
2019,03,18,04,10,9.30
2019,03,18,04,11,9.30
2019,03,18,04,12,9.30
2019,03,18,04,13,9.30
2019,03,18,04,14,9.20
2019,03,18,04,15,9.20
2019,03,18,04,16,9.20
2019,03,18,04,17,9.20
2019,03,18,04,18,9.20
2019,03,18,04,19,9.20
2019,03,18,04,20,9.10
2019,03,18,04,21,9.10
2019,03,18,04,22,9.00
2019,03,18,04,23,9.00
2019,03,18,04,24,8.90
2019,03,18,04,25,8.90
2019,03,18,04,26,8.80
2019,03,18,04,27,8.80
2019,03,18,04,28,8.80
2019,03,18,04,29,8.80
2019,03,18,04,30,8.80
2019,03,18,04,31,8.80
2019,03,18,04,32,8.80
2019,03,18,04,33,8.70
2019,03,18,04,34,8.70
2019,03,18,04,35,8.70
2019,03,18,04,36,8.60
2019,03,18,04,37,8.60
2019,03,18,04,38,8.60
2019,03,18,04,39,8.50
2019,03,18,04,40,8.50
2019,03,18,04,41,8.50
2019,03,18,04,42,8.50
2019,03,18,04,43,8.50
2019,03,18,04,44,8.50
2019,03,18,04,45,8.50
2019,03,18,04,46,8.50
2019,03,18,04,47,8.50
2019,03,18,04,48,8.50
2019,03,18,04,49,8.50
2019,03,18,04,50,8.50
2019,03,18,04,51,8.50
2019,03,18,04,52,8.50
2019,03,18,04,53,8.50
2019,03,18,04,54,8.50
2019,03,18,04,55,8.50
2019,03,18,04,56,8.50
2019,03,18,04,57,8.40
2019,03,18,04,58,8.40
2019,03,18,04,59,8.40
2019,03,18,05,00,8.40
2019,03,18,05,01,8.40
2019,03,18,05,02,8.40
2019,03,18,05,03,8.40
2019,03,18,05,04,8.50
2019,03,18,05,05,8.50
2019,03,18,05,06,8.50
2019,03,18,05,07,8.60
2019,03,18,05,08,8.60
2019,03,18,05,09,8.60
2019,03,18,05,10,8.60
2019,03,18,05,11,8.60
2019,03,18,05,12,8.50
2019,03,18,05,13,8.50
2019,03,18,05,14,8.50
2019,03,18,05,15,8.60
2019,03,18,05,16,8.60
2019,03,18,05,17,8.60
2019,03,18,05,18,8.60
2019,03,18,05,19,8.60
2019,03,18,05,20,8.60
2019,03,18,05,21,8.60
2019,03,18,05,22,8.60
2019,03,18,05,23,8.70
2019,03,18,05,24,8.70
2019,03,18,05,25,8.70
2019,03,18,05,26,8.70
2019,03,18,05,27,8.70
2019,03,18,05,28,8.80
2019,03,18,05,29,8.80
2019,03,18,05,30,8.80
2019,03,18,05,31,8.80
2019,03,18,05,32,8.80
2019,03,18,05,33,8.80
2019,03,18,05,34,8.80
2019,03,18,05,35,8.80
2019,03,18,05,36,8.80
2019,03,18,05,37,8.80
2019,03,18,05,38,8.80
2019,03,18,05,39,8.80
2019,03,18,05,40,8.70
2019,03,18,05,41,8.70
2019,03,18,05,42,8.70
2019,03,18,05,43,8.70
2019,03,18,05,44,8.70
2019,03,18,05,45,8.70
2019,03,18,05,46,8.70
2019,03,18,05,47,8.70
2019,03,18,05,48,8.60
2019,03,18,05,49,8.60
2019,03,18,05,50,8.70
2019,03,18,05,51,8.60
2019,03,18,05,52,8.60
2019,03,18,05,53,8.60
2019,03,18,05,54,8.50
2019,03,18,05,55,8.40
2019,03,18,05,56,8.40
2019,03,18,05,57,8.30
2019,03,18,05,58,8.30
2019,03,18,05,59,8.30
2019,03,18,06,00,8.20
2019,03,18,06,01,8.20
2019,03,18,06,02,8.30
2019,03,18,06,03,8.30
2019,03,18,06,04,8.30
2019,03,18,06,05,8.30
2019,03,18,06,06,8.30
2019,03,18,06,07,8.30
2019,03,18,06,08,8.30
2019,03,18,06,09,8.40
2019,03,18,06,10,8.40
2019,03,18,06,11,8.40
2019,03,18,06,12,8.40
2019,03,18,06,13,8.40
2019,03,18,06,14,8.40
2019,03,18,06,15,8.40
2019,03,18,06,16,8.50
2019,03,18,06,17,8.50
2019,03,18,06,18,8.50
2019,03,18,06,19,8.50
2019,03,18,06,20,8.50
2019,03,18,06,21,8.50
2019,03,18,06,22,8.50
2019,03,18,06,23,8.50
2019,03,18,06,24,8.50
2019,03,18,06,25,8.50
2019,03,18,06,26,8.40
2019,03,18,06,27,8.40
2019,03,18,06,28,8.40
2019,03,18,06,29,8.40
2019,03,18,06,30,8.30
2019,03,18,06,31,8.30
2019,03,18,06,32,8.30
2019,03,18,06,33,8.20
2019,03,18,06,34,8.20
2019,03,18,06,35,8.20
2019,03,18,06,36,8.20
2019,03,18,06,37,8.20
2019,03,18,06,38,8.20
2019,03,18,06,39,8.20
2019,03,18,06,40,8.20
2019,03,18,06,41,8.20
2019,03,18,06,42,8.20
2019,03,18,06,43,8.20
2019,03,18,06,44,8.20
2019,03,18,06,45,8.20
2019,03,18,06,46,8.20
2019,03,18,06,47,8.20
2019,03,18,06,48,8.10
2019,03,18,06,49,8.10
2019,03,18,06,50,8.10
2019,03,18,06,51,8.00
2019,03,18,06,52,8.00
2019,03,18,06,53,8.00
2019,03,18,06,54,7.90
2019,03,18,06,55,7.90
2019,03,18,06,56,7.90
2019,03,18,06,57,7.90
2019,03,18,06,58,7.90
2019,03,18,06,59,7.80
2019,03,18,07,00,7.80
2019,03,18,07,01,7.80
2019,03,18,07,02,7.80
2019,03,18,07,03,7.70
2019,03,18,07,04,7.70
2019,03,18,07,05,7.70
2019,03,18,07,06,7.70
2019,03,18,07,07,7.70
2019,03,18,07,08,7.60
2019,03,18,07,09,7.60
2019,03,18,07,10,7.60
2019,03,18,07,11,7.60
2019,03,18,07,12,7.60
2019,03,18,07,13,7.60
2019,03,18,07,14,7.50
2019,03,18,07,15,7.50
2019,03,18,07,16,7.50
2019,03,18,07,17,7.40
2019,03,18,07,18,7.40
2019,03,18,07,19,7.40
2019,03,18,07,20,7.40
2019,03,18,07,21,7.40
2019,03,18,07,22,7.30
2019,03,18,07,23,7.30
2019,03,18,07,24,7.20
2019,03,18,07,25,7.20
2019,03,18,07,26,7.20
2019,03,18,07,27,7.20
2019,03,18,07,28,7.20
2019,03,18,07,29,7.20
2019,03,18,07,30,7.20
2019,03,18,07,31,7.20
2019,03,18,07,32,7.10
2019,03,18,07,33,7.10
2019,03,18,07,34,7.00
2019,03,18,07,35,7.00
2019,03,18,07,36,7.00
2019,03,18,07,37,6.90
2019,03,18,07,38,6.90
2019,03,18,07,39,6.90
2019,03,18,07,40,6.90
2019,03,18,07,41,6.90
2019,03,18,07,42,6.90
2019,03,18,07,43,6.90
2019,03,18,07,44,6.90
2019,03,18,07,45,6.90
2019,03,18,07,46,6.90
2019,03,18,07,47,6.90
2019,03,18,07,48,6.90
2019,03,18,07,49,6.90
2019,03,18,07,50,6.90
2019,03,18,07,51,6.90
2019,03,18,07,52,6.90
2019,03,18,07,53,6.90
2019,03,18,07,54,6.90
2019,03,18,07,55,7.00
2019,03,18,07,56,7.00
2019,03,18,07,57,7.10
2019,03,18,07,58,7.10
2019,03,18,07,59,7.10
2019,03,18,08,00,7.10
2019,03,18,08,01,7.10
2019,03,18,08,02,7.10
2019,03,18,08,03,7.20
2019,03,18,08,04,7.20
2019,03,18,08,05,7.20
2019,03,18,08,06,7.20
2019,03,18,08,07,7.20
2019,03,18,08,08,7.20
2019,03,18,08,09,7.30
2019,03,18,08,10,7.40
2019,03,18,08,11,7.40
2019,03,18,08,12,7.50
2019,03,18,08,13,7.50
2019,03,18,08,14,7.60
2019,03,18,08,15,7.70
2019,03,18,08,16,7.80
2019,03,18,08,17,7.80
2019,03,18,08,18,7.90
2019,03,18,08,19,8.00
2019,03,18,08,20,8.10
2019,03,18,08,21,8.20
2019,03,18,08,22,8.30
2019,03,18,08,23,8.30
2019,03,18,08,24,8.30
2019,03,18,08,25,8.30
2019,03,18,08,26,8.40
2019,03,18,08,27,8.50
2019,03,18,08,28,8.50
2019,03,18,08,29,8.60
2019,03,18,08,30,8.60
2019,03,18,08,31,8.70
2019,03,18,08,32,8.70
2019,03,18,08,33,8.70
2019,03,18,08,34,8.70
2019,03,18,08,35,8.70
2019,03,18,08,36,8.70
2019,03,18,08,37,8.70
2019,03,18,08,38,8.70
2019,03,18,08,39,8.70
2019,03,18,08,40,8.70
2019,03,18,08,41,8.70
2019,03,18,08,42,8.70
2019,03,18,08,43,8.70
2019,03,18,08,44,8.70
2019,03,18,08,45,8.70
2019,03,18,08,46,8.80
2019,03,18,08,47,8.80
2019,03,18,08,48,8.80
2019,03,18,08,49,8.80
2019,03,18,08,50,8.80
2019,03,18,08,51,8.90
2019,03,18,08,52,8.90
2019,03,18,08,53,8.90
2019,03,18,08,54,8.90
2019,03,18,08,55,8.90
2019,03,18,08,56,9.00
2019,03,18,08,57,9.00
2019,03,18,08,58,9.00
2019,03,18,08,59,9.10
2019,03,18,09,00,9.10
2019,03,18,09,01,9.10
2019,03,18,09,02,9.20
2019,03,18,09,03,9.20
2019,03,18,09,04,9.20
2019,03,18,09,05,9.30
2019,03,18,09,06,9.30
2019,03,18,09,07,9.30
2019,03,18,09,08,9.30
2019,03,18,09,09,9.40
2019,03,18,09,10,9.40
2019,03,18,09,11,9.40
2019,03,18,09,12,9.40
2019,03,18,09,13,9.40
2019,03,18,09,14,9.50
2019,03,18,09,15,9.50
2019,03,18,09,16,9.60
2019,03,18,09,17,9.60
2019,03,18,09,18,9.60
2019,03,18,09,19,9.60
2019,03,18,09,20,9.60
2019,03,18,09,21,9.60
2019,03,18,09,22,9.60
2019,03,18,09,23,9.60
2019,03,18,09,24,9.50
2019,03,18,09,25,9.50
2019,03,18,09,26,9.40
2019,03,18,09,27,9.30
2019,03,18,09,28,9.30
2019,03,18,09,29,9.30
2019,03,18,09,30,9.30
2019,03,18,09,31,9.30
2019,03,18,09,32,9.20
2019,03,18,09,33,9.20
2019,03,18,09,34,9.20
2019,03,18,09,35,9.20
2019,03,18,09,36,9.20
2019,03,18,09,37,9.20
2019,03,18,09,38,9.20
2019,03,18,09,39,9.20
2019,03,18,09,40,9.20
2019,03,18,09,41,9.20
2019,03,18,09,42,9.20
2019,03,18,09,43,9.20
2019,03,18,09,44,9.20
2019,03,18,09,45,9.20
2019,03,18,09,46,9.20
2019,03,18,09,47,9.20
2019,03,18,09,48,9.20
2019,03,18,09,49,9.10
2019,03,18,09,50,9.10
2019,03,18,09,51,9.20
2019,03,18,09,52,9.20
2019,03,18,09,53,9.20
2019,03,18,09,54,9.20
2019,03,18,09,55,9.20
2019,03,18,09,56,9.20
2019,03,18,09,57,9.30
2019,03,18,09,58,9.30
2019,03,18,09,59,9.30
2019,03,18,10,00,9.40
2019,03,18,10,01,9.40
2019,03,18,10,02,9.40
2019,03,18,10,03,9.40
2019,03,18,10,04,9.40
2019,03,18,10,05,9.40
2019,03,18,10,06,9.50
2019,03,18,10,07,9.50
2019,03,18,10,08,9.50
2019,03,18,10,09,9.50
2019,03,18,10,10,9.50
2019,03,18,10,11,9.50
2019,03,18,10,12,9.60
2019,03,18,10,13,9.60
2019,03,18,10,14,9.60
2019,03,18,10,15,9.60
2019,03,18,10,16,9.60
2019,03,18,10,17,9.60
2019,03,18,10,18,9.60
2019,03,18,10,19,9.60
2019,03,18,10,20,9.60
2019,03,18,10,21,9.60
2019,03,18,10,22,9.60
2019,03,18,10,23,9.60
2019,03,18,10,24,9.60
2019,03,18,10,25,9.60
2019,03,18,10,26,9.60
2019,03,18,10,27,9.60
2019,03,18,10,28,9.60
2019,03,18,10,29,9.70
2019,03,18,10,30,9.70
2019,03,18,10,31,9.70
2019,03,18,10,32,9.70
2019,03,18,10,33,9.70
2019,03,18,10,34,9.70
2019,03,18,10,35,9.70
2019,03,18,10,36,9.60
2019,03,18,10,37,9.60
2019,03,18,10,38,9.60
2019,03,18,10,39,9.60
2019,03,18,10,40,9.70
2019,03,18,10,41,9.80
2019,03,18,10,42,9.80
2019,03,18,10,43,9.80
2019,03,18,10,44,9.90
2019,03,18,10,45,9.90
2019,03,18,10,46,9.90
2019,03,18,10,47,9.90
2019,03,18,10,48,9.90
2019,03,18,10,49,9.90
2019,03,18,10,50,9.90
2019,03,18,10,51,9.90
2019,03,18,10,52,9.90
2019,03,18,10,53,9.90
2019,03,18,10,54,9.90
2019,03,18,10,55,9.90
2019,03,18,10,56,9.90
2019,03,18,10,57,9.90
2019,03,18,10,58,9.90
2019,03,18,10,59,9.90
2019,03,18,11,00,9.90
2019,03,18,11,01,9.90
2019,03,18,11,02,9.90
2019,03,18,11,03,9.90
2019,03,18,11,04,9.90
2019,03,18,11,05,9.90
2019,03,18,11,06,9.90
2019,03,18,11,07,9.90
2019,03,18,11,08,9.90
2019,03,18,11,09,9.90
2019,03,18,11,10,9.90
2019,03,18,11,11,9.90
2019,03,18,11,12,9.90
2019,03,18,11,13,9.90
2019,03,18,11,14,9.90
2019,03,18,11,15,9.90
2019,03,18,11,16,9.90
2019,03,18,11,17,10.00
2019,03,18,11,18,10.10
2019,03,18,11,19,10.10
2019,03,18,11,20,10.10
2019,03,18,11,21,10.10
2019,03,18,11,22,10.10
2019,03,18,11,23,10.10
2019,03,18,11,24,10.10
2019,03,18,11,25,10.10
2019,03,18,11,26,10.10
2019,03,18,11,27,10.20
2019,03,18,11,28,10.20
2019,03,18,11,29,10.20
2019,03,18,11,30,10.20
2019,03,18,11,31,10.20
2019,03,18,11,32,10.20
2019,03,18,11,33,10.30
2019,03,18,11,34,10.30
2019,03,18,11,35,10.30
2019,03,18,11,36,10.30
2019,03,18,11,37,10.40
2019,03,18,11,38,10.40
2019,03,18,11,39,10.40
2019,03,18,11,40,10.40
2019,03,18,11,41,10.50
2019,03,18,11,42,10.50
2019,03,18,11,43,10.60
2019,03,18,11,44,10.60
2019,03,18,11,45,10.60
2019,03,18,11,46,10.60
2019,03,18,11,47,10.70
2019,03,18,11,48,10.70
2019,03,18,11,49,10.70
2019,03,18,11,50,10.70
2019,03,18,11,51,10.70
2019,03,18,11,52,10.80
2019,03,18,11,53,10.80
2019,03,18,11,54,10.80
2019,03,18,11,55,10.80
2019,03,18,11,56,10.80
2019,03,18,11,57,10.80
2019,03,18,11,58,10.80
2019,03,18,11,59,10.90
2019,03,18,12,00,11.00
2019,03,18,12,01,11.00
2019,03,18,12,02,11.10
2019,03,18,12,03,11.10
2019,03,18,12,04,11.10
2019,03,18,12,05,11.10
2019,03,18,12,06,11.10
2019,03,18,12,07,11.10
2019,03,18,12,08,11.10
2019,03,18,12,09,11.20
2019,03,18,12,10,11.20
2019,03,18,12,11,11.30
2019,03,18,12,12,11.30
2019,03,18,12,13,11.40
2019,03,18,12,14,11.40
2019,03,18,12,15,11.50
2019,03,18,12,16,11.60
2019,03,18,12,17,11.70
2019,03,18,12,18,11.70
2019,03,18,12,19,11.70
2019,03,18,12,20,11.80
2019,03,18,12,21,11.80
2019,03,18,12,22,11.80
2019,03,18,12,23,11.80
2019,03,18,12,24,11.80
2019,03,18,12,25,11.80
2019,03,18,12,26,11.80
2019,03,18,12,27,11.80
2019,03,18,12,28,11.80
2019,03,18,12,29,11.80
2019,03,18,12,30,11.80
2019,03,18,12,31,11.90
2019,03,18,12,32,11.90
2019,03,18,12,33,11.90
2019,03,18,12,34,11.90
2019,03,18,12,35,11.90
2019,03,18,12,36,11.90
2019,03,18,12,37,12.00
2019,03,18,12,38,12.00
2019,03,18,12,39,12.10
2019,03,18,12,40,12.10
2019,03,18,12,41,12.10
2019,03,18,12,42,12.10
2019,03,18,12,43,12.10
2019,03,18,12,44,12.20
2019,03,18,12,45,12.30
2019,03,18,12,46,12.30
2019,03,18,12,47,12.30
2019,03,18,12,48,12.30
2019,03,18,12,49,12.30
2019,03,18,12,50,12.30
2019,03,18,12,51,12.20
2019,03,18,12,52,12.20
2019,03,18,12,53,12.20
2019,03,18,12,54,12.20
2019,03,18,12,55,12.10
2019,03,18,12,56,12.10
2019,03,18,12,57,12.00
2019,03,18,12,58,12.00
2019,03,18,12,59,12.00
2019,03,18,13,00,12.10
2019,03,18,13,01,12.10
2019,03,18,13,02,12.00
2019,03,18,13,03,12.00
2019,03,18,13,04,12.00
2019,03,18,13,05,12.00
2019,03,18,13,06,12.00
2019,03,18,13,07,12.00
2019,03,18,13,08,11.90
2019,03,18,13,09,11.90
2019,03,18,13,10,12.00
2019,03,18,13,11,12.00
2019,03,18,13,12,12.10
2019,03,18,13,13,12.10
2019,03,18,13,14,12.10
2019,03,18,13,15,12.10
2019,03,18,13,16,12.00
2019,03,18,13,17,12.00
2019,03,18,13,18,11.90
2019,03,18,13,19,11.90
2019,03,18,13,20,11.90
2019,03,18,13,21,11.90
2019,03,18,13,22,12.00
2019,03,18,13,23,12.00
2019,03,18,13,24,12.00
2019,03,18,13,25,12.10
2019,03,18,13,26,12.10
2019,03,18,13,27,12.10
2019,03,18,13,28,12.00
2019,03,18,13,29,12.00
2019,03,18,13,30,12.00
2019,03,18,13,31,12.10
2019,03,18,13,32,12.10
2019,03,18,13,33,12.10
2019,03,18,13,34,12.10
2019,03,18,13,35,12.10
2019,03,18,13,36,12.10
2019,03,18,13,37,12.10
2019,03,18,13,38,12.20
2019,03,18,13,39,12.20
2019,03,18,13,40,12.30
2019,03,18,13,41,12.40
2019,03,18,13,42,12.40
2019,03,18,13,43,12.50
2019,03,18,13,44,12.50
2019,03,18,13,45,12.60
2019,03,18,13,46,12.60
2019,03,18,13,47,12.70
2019,03,18,13,48,12.80
2019,03,18,13,49,12.80
2019,03,18,13,50,12.80
2019,03,18,13,51,12.70
2019,03,18,13,52,12.80
2019,03,18,13,53,12.80
2019,03,18,13,54,12.80
2019,03,18,13,55,12.80
2019,03,18,13,56,12.70
2019,03,18,13,57,12.50
2019,03,18,13,58,12.40
2019,03,18,13,59,12.30
2019,03,18,14,00,12.30
2019,03,18,14,01,12.20
2019,03,18,14,02,12.20
2019,03,18,14,03,12.20
2019,03,18,14,04,12.30
2019,03,18,14,05,12.40
2019,03,18,14,06,12.40
2019,03,18,14,07,12.30
2019,03,18,14,08,12.30
2019,03,18,14,09,12.20
2019,03,18,14,10,12.10
2019,03,18,14,11,12.10
2019,03,18,14,12,12.10
2019,03,18,14,13,12.10
2019,03,18,14,14,12.20
2019,03,18,14,15,12.30
2019,03,18,14,16,12.40
2019,03,18,14,17,12.50
2019,03,18,14,18,12.50
2019,03,18,14,19,12.60
2019,03,18,14,20,12.60
2019,03,18,14,21,12.60
2019,03,18,14,22,12.60
2019,03,18,14,23,12.60
2019,03,18,14,24,12.60
2019,03,18,14,25,12.50
2019,03,18,14,26,12.50
2019,03,18,14,27,12.40
2019,03,18,14,28,12.40
2019,03,18,14,29,12.40
2019,03,18,14,30,12.40
2019,03,18,14,31,12.30
2019,03,18,14,32,12.40
2019,03,18,14,33,12.40
2019,03,18,14,34,12.40
2019,03,18,14,35,12.50
2019,03,18,14,36,12.60
2019,03,18,14,37,12.70
2019,03,18,14,38,12.70
2019,03,18,14,39,12.80
2019,03,18,14,40,12.80
2019,03,18,14,41,12.80
2019,03,18,14,42,12.80
2019,03,18,14,43,12.80
2019,03,18,14,44,12.80
2019,03,18,14,45,12.70
2019,03,18,14,46,12.60
2019,03,18,14,47,12.50
2019,03,18,14,48,12.50
2019,03,18,14,49,12.50
2019,03,18,14,50,12.50
2019,03,18,14,51,12.40
2019,03,18,14,52,12.40
2019,03,18,14,53,12.40
2019,03,18,14,54,12.50
2019,03,18,14,55,12.60
2019,03,18,14,56,12.70
2019,03,18,14,57,12.70
2019,03,18,14,58,12.70
2019,03,18,14,59,12.80
2019,03,18,15,00,12.80
2019,03,18,15,01,12.90
2019,03,18,15,02,13.00
2019,03,18,15,03,13.10
2019,03,18,15,04,13.20
2019,03,18,15,05,13.20
2019,03,18,15,06,13.20
2019,03,18,15,07,13.20
2019,03,18,15,08,13.20
2019,03,18,15,09,13.20
2019,03,18,15,10,13.20
2019,03,18,15,11,13.20
2019,03,18,15,12,13.20
2019,03,18,15,13,13.20
2019,03,18,15,14,13.20
2019,03,18,15,15,13.20
2019,03,18,15,16,13.20
2019,03,18,15,17,13.20
2019,03,18,15,18,13.20
2019,03,18,15,19,13.20
2019,03,18,15,20,13.20
2019,03,18,15,21,13.20
2019,03,18,15,22,13.30
2019,03,18,15,23,13.30
2019,03,18,15,24,13.30
2019,03,18,15,25,13.30
2019,03,18,15,26,13.30
2019,03,18,15,27,13.40
2019,03,18,15,28,13.40
2019,03,18,15,29,13.40
2019,03,18,15,30,13.40
2019,03,18,15,31,13.40
2019,03,18,15,32,13.30
2019,03,18,15,33,13.30
2019,03,18,15,34,13.20
2019,03,18,15,35,13.20
2019,03,18,15,36,13.30
2019,03,18,15,37,13.30
2019,03,18,15,38,13.30
2019,03,18,15,39,13.30
2019,03,18,15,40,13.30
2019,03,18,15,41,13.20
2019,03,18,15,42,13.20
2019,03,18,15,43,13.30
2019,03,18,15,44,13.40
2019,03,18,15,45,13.40
2019,03,18,15,46,13.40
2019,03,18,15,47,13.40
2019,03,18,15,48,13.40
2019,03,18,15,49,13.40
2019,03,18,15,50,13.40
2019,03,18,15,51,13.40
2019,03,18,15,52,13.40
2019,03,18,15,53,13.40
2019,03,18,15,54,13.50
2019,03,18,15,55,13.60
2019,03,18,15,56,13.60
2019,03,18,15,57,13.70
2019,03,18,15,58,13.70
2019,03,18,15,59,13.70
2019,03,18,16,00,13.70
2019,03,18,16,01,13.80
2019,03,18,16,02,13.90
2019,03,18,16,03,14.00
2019,03,18,16,04,14.10
2019,03,18,16,05,14.10
2019,03,18,16,06,14.10
2019,03,18,16,07,14.10
2019,03,18,16,08,14.10
2019,03,18,16,09,14.10
2019,03,18,16,10,14.10
2019,03,18,16,11,14.20
2019,03,18,16,12,14.20
2019,03,18,16,13,14.30
2019,03,18,16,14,14.30
2019,03,18,16,15,14.40
2019,03,18,16,16,14.40
2019,03,18,16,17,14.50
2019,03,18,16,18,14.60
2019,03,18,16,19,14.60
2019,03,18,16,20,14.60
2019,03,18,16,21,14.60
2019,03,18,16,22,14.50
2019,03,18,16,23,14.50
2019,03,18,16,24,14.50
2019,03,18,16,25,14.40
2019,03,18,16,26,14.40
2019,03,18,16,27,14.40
2019,03,18,16,28,14.40
2019,03,18,16,29,14.40
2019,03,18,16,30,14.40
2019,03,18,16,31,14.50
2019,03,18,16,32,14.60
2019,03,18,16,33,14.70
2019,03,18,16,34,14.80
2019,03,18,16,35,14.80
2019,03,18,16,36,15.00
2019,03,18,16,37,15.00
2019,03,18,16,38,15.00
2019,03,18,16,39,15.00
2019,03,18,16,40,15.00
2019,03,18,16,41,15.00
2019,03,18,16,42,15.00
2019,03,18,16,43,15.00
2019,03,18,16,44,15.10
2019,03,18,16,45,15.10
2019,03,18,16,46,15.10
2019,03,18,16,47,15.00
2019,03,18,16,48,15.00
2019,03,18,16,49,15.00
2019,03,18,16,50,15.00
2019,03,18,16,51,15.00
2019,03,18,16,52,15.00
2019,03,18,16,53,15.00
2019,03,18,16,54,15.00
2019,03,18,16,55,15.00
2019,03,18,16,56,15.00
2019,03,18,16,57,15.00
2019,03,18,16,58,15.00
2019,03,18,16,59,15.00
2019,03,18,17,00,15.00
2019,03,18,17,01,15.00
2019,03,18,17,02,15.00
2019,03,18,17,03,15.00
2019,03,18,17,04,15.00
2019,03,18,17,05,15.00
2019,03,18,17,06,15.00
2019,03,18,17,07,15.00
2019,03,18,17,08,14.90
2019,03,18,17,09,14.80
2019,03,18,17,10,14.80
2019,03,18,17,11,14.70
2019,03,18,17,12,14.60
2019,03,18,17,13,14.60
2019,03,18,17,14,14.50
2019,03,18,17,15,14.40
2019,03,18,17,16,14.30
2019,03,18,17,17,14.30
2019,03,18,17,18,14.20
2019,03,18,17,19,14.10
2019,03,18,17,20,14.00
2019,03,18,17,21,13.90
2019,03,18,17,22,13.80
2019,03,18,17,23,13.80
2019,03,18,17,24,13.70
2019,03,18,17,25,13.70
2019,03,18,17,26,13.70
2019,03,18,17,27,13.70
2019,03,18,17,28,13.70
2019,03,18,17,29,13.70
2019,03,18,17,30,13.70
2019,03,18,17,31,13.70
2019,03,18,17,32,13.70
2019,03,18,17,33,13.70
2019,03,18,17,34,13.70
2019,03,18,17,35,13.70
2019,03,18,17,36,13.70
2019,03,18,17,37,13.70
2019,03,18,17,38,13.70
2019,03,18,17,39,13.60
2019,03,18,17,40,13.60